Location: Boiro
(42.6475°N, 8.8834°W)
Time: 05:43:26
(UTC+01:00)

Vanguard 1 - Pass Details

Date: 01 December 2021
Orbit: 652 x 3830 km, 34.2° (Epoch: 21 January)

Event Time Altitude Azimuth Distance (km) Brightness Sun altitude
Rises 05:09:00 0° 265° (W) 7,967 - -39.2°
Reaches altitude 10° 05:14:36 10° 263° (W) 6,914 - -38.2°
Exits shadow 05:30:16 49° 242° (WSW) 3,986 12.6 -35.3°
Maximum altitude 05:36:38 64° 190° (S) 3,236 12.4 -34.2°
Drops below altitude 10° 05:50:13 10° 112° (ESE) 4,528 14.2 -31.7°
Sets 05:53:03 0° 109° (ESE) 5,193 14.8 -31.2°
